TimeCDT,TemperatureF,Dew PointF,Humidity,Sea Level PressureIn,VisibilityMPH,Wind Direction,Wind SpeedMPH,Gust SpeedMPH,PrecipitationIn,Events,Conditions,WindDirDegrees,DateUTC
12:15 AM,60.8,41.0,48,29.87,10.0,SSE,9.2,-,N/A,,Clear,160,2013-03-16 05:15:00
12:35 AM,59.0,41.0,51,29.87,10.0,SSE,6.9,-,N/A,,Clear,160,2013-03-16 05:35:00
12:55 AM,57.2,41.0,55,29.86,10.0,SSE,6.9,-,N/A,,Clear,160,2013-03-16 05:55:00
1:15 AM,57.2,42.8,59,29.86,10.0,SSE,8.1,-,N/A,,Clear,160,2013-03-16 06:15:00
1:35 AM,57.2,42.8,59,29.86,10.0,SSE,9.2,-,N/A,,Clear,160,2013-03-16 06:35:00
1:55 AM,55.4,41.0,58,29.86,10.0,South,9.2,-,N/A,,Clear,170,2013-03-16 06:55:00
2:15 AM,55.4,41.0,58,29.85,10.0,South,9.2,-,N/A,,Clear,170,2013-03-16 07:15:00
2:35 AM,57.2,42.8,59,29.85,10.0,South,15.0,-,N/A,,Clear,170,2013-03-16 07:35:00
2:55 AM,59.0,44.6,59,29.85,10.0,South,13.8,-,N/A,,Clear,170,2013-03-16 07:55:00
3:15 AM,59.0,44.6,59,29.85,10.0,South,12.7,-,N/A,,Clear,170,2013-03-16 08:15:00
3:35 AM,59.0,44.6,59,29.84,10.0,South,15.0,-,N/A,,Clear,170,2013-03-16 08:35:00
3:55 AM,57.2,44.6,63,29.84,10.0,South,13.8,-,N/A,,Clear,170,2013-03-16 08:55:00
4:15 AM,55.4,44.6,67,29.83,10.0,South,11.5,-,N/A,,Clear,170,2013-03-16 09:15:00
4:35 AM,55.4,46.4,72,29.82,10.0,SSE,11.5,-,N/A,,Clear,160,2013-03-16 09:35:00
4:55 AM,55.4,46.4,72,29.82,10.0,SSE,11.5,-,N/A,,Clear,160,2013-03-16 09:55:00
5:15 AM,55.4,46.4,72,29.82,10.0,SSE,11.5,-,N/A,,Clear,160,2013-03-16 10:15:00
5:35 AM,55.4,46.4,72,29.82,10.0,SSE,11.5,-,N/A,,Clear,160,2013-03-16 10:35:00
5:55 AM,53.6,46.4,77,29.82,10.0,SSE,10.4,-,N/A,,Clear,160,2013-03-16 10:55:00
6:15 AM,51.8,44.6,76,29.82,10.0,SSE,10.4,-,N/A,,Clear,160,2013-03-16 11:15:00
6:35 AM,51.8,46.4,82,29.82,10.0,SSE,10.4,-,N/A,,Clear,160,2013-03-16 11:35:00
6:55 AM,51.8,46.4,82,29.82,10.0,SSE,10.4,-,N/A,,Clear,150,2013-03-16 11:55:00
7:15 AM,51.8,46.4,82,29.83,10.0,SSE,10.4,-,N/A,,Clear,160,2013-03-16 12:15:00
7:35 AM,51.8,46.4,82,29.83,10.0,SSE,9.2,-,N/A,,Clear,150,2013-03-16 12:35:00
7:55 AM,51.8,48.2,88,29.83,10.0,SSE,9.2,-,N/A,,Clear,160,2013-03-16 12:55:00
8:15 AM,51.8,48.2,88,29.83,10.0,SSE,10.4,-,N/A,,Clear,160,2013-03-16 13:15:00
8:35 AM,55.4,50.0,82,29.84,10.0,SSE,9.2,-,N/A,,Clear,160,2013-03-16 13:35:00
8:55 AM,55.4,48.2,77,29.84,10.0,SSE,11.5,-,N/A,,Clear,160,2013-03-16 13:55:00
9:15 AM,57.2,50.0,77,29.83,10.0,South,16.1,19.6,N/A,,Clear,170,2013-03-16 14:15:00
9:35 AM,59.0,50.0,72,29.83,10.0,South,16.1,-,N/A,,Clear,170,2013-03-16 14:35:00
9:55 AM,60.8,50.0,68,29.82,10.0,South,18.4,24.2,N/A,,Clear,170,2013-03-16 14:55:00
10:15 AM,62.6,51.8,68,29.82,10.0,South,19.6,23.0,N/A,,Clear,170,2013-03-16 15:15:00
10:35 AM,64.4,53.6,68,29.83,10.0,South,15.0,20.7,N/A,,Clear,180,2013-03-16 15:35:00
10:55 AM,64.4,51.8,64,29.82,10.0,South,20.7,25.3,N/A,,Clear,170,2013-03-16 15:55:00
11:15 AM,66.2,51.8,60,29.82,10.0,South,18.4,21.9,N/A,,Clear,170,2013-03-16 16:15:00
11:35 AM,68.0,51.8,56,29.82,10.0,South,18.4,23.0,N/A,,Clear,170,2013-03-16 16:35:00
11:55 AM,68.0,51.8,56,29.82,10.0,South,18.4,24.2,N/A,,Clear,170,2013-03-16 16:55:00
12:15 PM,69.8,53.6,56,29.81,10.0,South,18.4,23.0,N/A,,Clear,180,2013-03-16 17:15:00
12:35 PM,69.8,51.8,53,29.80,10.0,South,17.3,20.7,N/A,,Clear,170,2013-03-16 17:35:00
12:55 PM,69.8,51.8,53,29.80,10.0,South,17.3,-,N/A,,Clear,180,2013-03-16 17:55:00
1:15 PM,71.6,53.6,53,29.80,10.0,South,15.0,21.9,N/A,,Clear,180,2013-03-16 18:15:00
1:35 PM,71.6,51.8,50,29.79,10.0,SSE,16.1,-,N/A,,Clear,160,2013-03-16 18:35:00
1:55 PM,71.6,51.8,50,29.78,10.0,SSE,15.0,23.0,N/A,,Clear,150,2013-03-16 18:55:00
2:15 PM,75.2,53.6,47,29.77,10.0,South,13.8,19.6,N/A,,Clear,170,2013-03-16 19:15:00
2:35 PM,75.2,51.8,44,29.76,10.0,SSE,15.0,19.6,N/A,,Clear,150,2013-03-16 19:35:00
2:55 PM,75.2,51.8,44,29.75,10.0,SSE,11.5,-,N/A,,Clear,150,2013-03-16 19:55:00
3:15 PM,75.2,53.6,47,29.74,10.0,SSE,13.8,17.3,N/A,,Clear,150,2013-03-16 20:15:00
3:35 PM,77.0,53.6,44,29.73,10.0,SE,16.1,19.6,N/A,,Clear,140,2013-03-16 20:35:00
3:55 PM,77.0,53.6,44,29.73,10.0,SSE,12.7,18.4,N/A,,Clear,150,2013-03-16 20:55:00
4:15 PM,77.0,55.4,47,29.72,10.0,SE,17.3,-,N/A,,Clear,140,2013-03-16 21:15:00
4:35 PM,77.0,55.4,47,29.70,10.0,SSE,13.8,21.9,N/A,,Clear,150,2013-03-16 21:35:00
4:55 PM,77.0,55.4,47,29.70,10.0,SE,16.1,21.9,N/A,,Clear,140,2013-03-16 21:55:00
5:15 PM,77.0,55.4,47,29.70,10.0,SE,17.3,-,N/A,,Clear,140,2013-03-16 22:15:00
5:35 PM,77.0,55.4,47,29.69,10.0,SE,17.3,23.0,N/A,,Clear,140,2013-03-16 22:35:00
5:55 PM,77.0,55.4,47,29.69,10.0,SE,17.3,21.9,N/A,,Clear,140,2013-03-16 22:55:00
6:15 PM,75.2,55.4,50,29.69,10.0,SE,16.1,23.0,N/A,,Clear,140,2013-03-16 23:15:00
6:35 PM,75.2,55.4,50,29.69,10.0,SE,17.3,-,N/A,,Clear,140,2013-03-16 23:35:00
6:55 PM,73.4,55.4,53,29.69,10.0,SE,13.8,-,N/A,,Clear,140,2013-03-16 23:55:00
7:15 PM,71.6,55.4,57,29.70,10.0,SE,11.5,-,N/A,,Clear,140,2013-03-17 00:15:00
7:35 PM,71.6,55.4,57,29.70,10.0,SE,10.4,-,N/A,,Clear,130,2013-03-17 00:35:00
7:55 PM,69.8,55.4,60,29.70,10.0,SE,11.5,-,N/A,,Clear,140,2013-03-17 00:55:00
8:15 PM,69.8,55.4,60,29.70,10.0,SE,11.5,-,N/A,,Clear,130,2013-03-17 01:15:00
8:35 PM,69.8,55.4,60,29.70,10.0,SE,12.7,-,N/A,,Clear,130,2013-03-17 01:35:00
8:55 PM,69.8,55.4,60,29.70,10.0,SE,10.4,-,N/A,,Clear,130,2013-03-17 01:55:00
9:15 PM,68.0,53.6,60,29.70,10.0,SE,9.2,-,N/A,,Clear,130,2013-03-17 02:15:00
9:35 PM,68.0,53.6,60,29.71,10.0,SE,9.2,-,N/A,,Clear,130,2013-03-17 02:35:00
9:55 PM,68.0,53.6,60,29.72,10.0,SE,9.2,-,N/A,,Clear,130,2013-03-17 02:55:00
10:15 PM,66.2,53.6,64,29.73,10.0,SE,6.9,-,N/A,,Clear,130,2013-03-17 03:15:00
10:35 PM,64.4,53.6,68,29.73,10.0,SE,8.1,-,N/A,,Clear,140,2013-03-17 03:35:00
10:55 PM,64.4,51.8,64,29.73,10.0,SE,9.2,-,N/A,,Clear,140,2013-03-17 03:55:00
11:15 PM,64.4,53.6,68,29.73,10.0,SE,9.2,-,N/A,,Clear,140,2013-03-17 04:15:00
11:35 PM,64.4,53.6,68,29.73,10.0,SE,8.1,-,N/A,,Clear,140,2013-03-17 04:35:00
11:55 PM,64.4,53.6,68,29.74,10.0,SE,8.1,-,N/A,,Clear,140,2013-03-17 04:55:00